Lobo

Go HERE for most recent data if this page is not up to date.

Jump to table bottom
Date/Time Temp deg F RH % 24 Hr Snow (in) Snow Depth (in) H2O (in)
08/24 07:00 51.1 56 "NAN" -0.4 0.00
08/24 06:00 51.5 54 "NAN" -0.2 0.00
08/24 05:00 51.3 53 "NAN" 0.0 0.00
08/24 04:00 50.0 57 "NAN" 0.1 0.00
08/24 03:00 49.6 60 "NAN" -0.4 0.00
08/24 02:00 49.8 60 "NAN" -0.3 0.00
08/24 01:00 49.6 63 "NAN" 0.0 0.00
08/24 00:00 50.2 66 "NAN" -0.0 0.00
08/23 23:00 49.6 63 "NAN" -0.0 0.00
08/23 22:00 48.8 65 "NAN" 0.1 0.00
08/23 21:00 49.5 67 "NAN" -0.2 0.00
08/23 20:00 50.1 68 "NAN" -0.4 0.00
08/23 19:00 51.6 63 "NAN" -0.5 0.00
08/23 18:00 53.8 58 "NAN" -0.4 0.00
08/23 17:00 55.7 56 "NAN" -1.1 0.00
08/23 16:00 54.9 49 "NAN" -8.6 0.00
08/23 15:00 53.4 62 "NAN" -8.7 0.00
08/23 14:00 50.0 62 "NAN" -8.0 0.00
08/23 13:00 50.2 70 "NAN" -8.9 0.00
08/23 12:00 48.1 80 "NAN" -0.9 0.00
08/23 11:00 43.8 83 "NAN" -7.8 0.00
08/23 10:00 44.4 94 "NAN" -9.2 0.00
08/23 09:00 42.8 93 "NAN" -8.2 0.00
08/23 08:00 41.0 93 "NAN" -7.7 0.00
08/23 07:00 40.0 98 "NAN" -8.1 0.00
08/23 06:00 39.5 98 "NAN" -11.4 0.00
08/23 05:00 39.2 98 "NAN" -9.3 0.00
08/23 04:00 39.5 98 "NAN" -7.7 0.00
08/23 03:00 40.7 94 "NAN" -7.8 0.00
08/23 02:00 40.8 88 "NAN" -8.6 0.00
08/23 01:00 40.9 87 "NAN" -8.1 0.00
08/23 00:00 39.5 88 "NAN" 0.9 0.00
.